Other Public Products
Issued by NWS Grand Forks, ND

Home | Current Version | Previous Version | Text Only | Print | Product List | Glossary On
Versions: 1 2 3 4 5 6 7 8 9 10 11 12 13 14 15 16 17 18 19 20 21 22 23 24 25 26 27 28 29 30 31 32 33 34 35 36 37 38 39 40 41 42 43 44 45 46 47 48 49 50
000
FPUS83 KFGF 230431
OPUFGF
PRAIRIE TO PINES WEATHER ROUNDUP
NATIONAL WEATHER SERVICE EASTERN NORTH DAKOTA/GRAND FORKS ND
1100 PM CDT FRI SEP 22 2017

 **SATELLITE DATA USED TO AUGMENT SKY COVER AT AUTOMATED STATIONS**
 *****  WEATHER ACROSS EASTERN NORTH DAKOTA  *****

CITY           SKY/WX    TMP DP  RH WIND       PRES   REMARKS
GRAND FORKS    MOCLDY    55  52  89 N23G31    29.76R
GRAND FORKS AF CLOUDY    53  51  91 N16       29.79R
GRAND CITY NWS NOT AVBL
BUXTON           N/A     55  53  95 NW17        N/A
DEVILS LAKE    CLOUDY    51  48  89 N18       29.89R
FARGO          FAIR      60  54  80 W15       29.75R
WAHPETON ARPT  FAIR      63  55  77 W14       29.78R
$$

 *****  WEATHER ACROSS CENTRAL AND WESTERN NORTH DAKOTA  *****

CITY           SKY/WX    TMP DP  RH WIND       PRES   REMARKS
JAMESTOWN      CLOUDY    52  50  93 N20G25    29.85R
BISMARCK       CLOUDY    50  45  83 N14G24    29.96R
MINOT          CLOUDY    49  45  86 NW13      29.98S
MINOT AFB      CLOUDY    48  45  87 N12       29.98R
GARRISON         N/A     47  44  90 N8G20     29.99R
WILLISTON      FAIR      44  42  93 NW9       30.05S
DICKINSON      NOT AVBL
HETTINGER      CLOUDY    45  39  79 NW13      30.02S
$$

 *****  OTHER OBSERVATIONS NORTHEAST NORTH DAKOTA  *****

CITY           SKY/WX    TMP DP  RH WIND       PRES   REMARKS
WALHALLA       FAIR     N/A N/A N/A N20G25    29.87R
LANGDON        CLOUDY    50  50 100 N20       29.88R
CAVALIER       CLOUDY    52  50  93 N17G28    29.83R
GRAFTON        CLOUDY    52  52 100 N21G32    29.82R
CANDO          CLOUDY    48  48 100 N17G25    29.93S
FORT TOTTEN      N/A     51  49  92 N8        29.95S
ROLLA          CLOUDY    46  46 100 N17       29.94S FOG
RUGBY          CLOUDY    48  48 100 NW14      29.94S
 ***** THE ABOVE OBSERVATIONS ARE NON NWS ARE NOT QUALITY
        CONTROLLED AND MAY MIS-REPORT RAIN FOR SNOW...
$$

 *****  OTHER OBSERVATIONS SOUTHEAST NORTH DAKOTA *****

CITY           SKY/WX    TMP DP  RH WIND       PRES   REMARKS
COOPERSTOWN    CLOUDY    54  50  87 N16G25    29.84R
VALLEY CITY    CLOUDY    54  54 100 N15G22    29.85R
OAKES          NOT AVBL
GWINNER        CLEAR     55  52  88 NW12G21   29.81R
SHEYENNE NWR     N/A     58  53  81 NW9       29.95
BUFFALO          N/A     56  50  82 W13         N/A
WYNDMERE       NOT AVBL
 ***** THE ABOVE OBSERVATIONS ARE NON NWS ARE NOT QUALITY
       CONTROLLED AND MAY MIS-REPORT RAIN FOR SNOW...
$$

  *****  WEATHER ACROSS NORTHERN MINNESOTA  *****

CITY           SKY/WX    TMP DP  RH WIND       PRES   REMARKS
FLAG ISLAND    FAIR      61  59  94 NE13      29.68R
WARROAD        MOCLDY    64  61  88 NW8       29.69R
ROSEAU         CLOUDY    61  55  82 N14       29.68R
HALLOCK          N/A     55  52  88 N20G26    29.76R
THF RVR FALLS  CLOUDY    61  57  88 NW15      29.70R
HALSTAD          N/A     56  52  85 NW15        N/A
FOSSTON        FAIR      70  64  83 W12       29.68R FOG
BAUDETTE       TSTM      67  67 100 S9        29.64F
WASKISH        FAIR      75  72  88 S8        29.63F
CROOKSTON      CLOUDY    55  54  94 N15G24    29.74R
$$
  *****  WEATHER ACROSS CENTRAL AND WEST MINNESOTA  *****

CITY           SKY/WX    TMP DP  RH WIND       PRES   REMARKS
BEMIDJI        FAIR      79  70  75 S9G18     29.66F
PARK RAPIDS    FAIR      80  71  74 S15       29.70S
WADENA         FAIR      79  68  69 SW12G17   29.74R
DETROIT LAKES  FAIR      73  64  73 W8G17     29.75R
MOORHEAD       FAIR      61  54  77 NW15      29.76R
FERGUS FALLS   FAIR      70  61  73 W7        29.75R
ELBOW LAKE     FAIR      71  64  78 CALM      29.79R
MORRIS MN      FAIR      72  68  88 SE6       29.77R
STAPLES        FAIR      79  68  69 SW10G18   29.75R
WHEATON        FAIR      66  59  77 W14       29.79R
$$
  *****  WEATHER ELSEWHERE ACROSS MINNESOTA  *****

CITY           SKY/WX    TMP DP  RH WIND       PRES   REMARKS
DULUTH         FAIR      70  65  84 S12       29.81S
INTRNTL FALLS  FAIR      72  69  90 SE8       29.66F
ELY            FAIR      72  64  78 S10G17    29.75F
CLOQUET        FAIR      66  63  88 SE6       29.79F
BRAINERD       FAIR      79  69  71 S14       29.75S
HIBBING        FAIR      71  68  90 SE7       29.76S
ALEXANDRIA     TSTM      75  66  73 S22G36    29.81
SAINT CLOUD    FAIR      81  69  67 S14       29.81R
MINNEAPOLIS    MOCLDY    85  69  58 S18G26    29.84S
$$

  *****  WEATHER ACROSS SOUTH DAKOTA  *****

CITY           SKY/WX    TMP DP  RH WIND       PRES   REMARKS
SIOUX FALLS    FAIR      73  67  81 NW5       29.80R
BROOKINGS      FAIR      66  65  96 W5        29.81S
WATERTOWN      FAIR      63  61  93 W10       29.82R
HURON          CLOUDY    57  55  93 N12       29.85F
SISSETON         N/A     65  59  81 NW12G23   29.76R
ABERDEEN       CLOUDY    56  52  86 W14       29.90R
MITCHELL       FAIR      62  57  83 N7        29.84R
PIERRE         CLOUDY    51  45  79 NW14      29.93F
MOBRIDGE       CLOUDY    52  47  83 N20G30    29.90R
RAPID CITY     CLOUDY    48  36  61 N18       30.02R
$$

  *****  SOME WEATHER IN NEARBY STATES *****

CITY           SKY/WX    TMP DP  RH WIND       PRES   REMARKS
GLASGOW MT     CLOUDY    45  41  86 CALM      30.08F
GREAT FALLS MT CLOUDY    36  34  92 NW6       30.09R
CHEYENNE WY    FAIR      48  36  63 N14G21    29.97F
SCOTTSBLUFF NE FAIR      54  42  64 N10       29.94R
OMAHA NE       FAIR      81  68  64 S17       29.88R
DES MOINES IA  FAIR      77  67  71 SE8       29.94R
DAVENPORT IA   FAIR      73  65  75 S7        30.02S
CHICAGO IL     FAIR      78  66  66 SE9       30.03S
EAU CLAIRE WI  FAIR      79  66  64 S9        29.89R
LA CROSSE WI   FAIR      81  68  64 S8        29.93R
$$

  *****  SOME NATIONAL WEATHER *****

CITY           SKY/WX    TMP DP  RH WIND       PRES   REMARKS
LA GUARDIA NY  FAIR      73  57  57 N10       29.97S
RALEIGH NC     MOCLDY    70  66  87 NE3       30.03F
ATLANTA GA     FAIR      75  68  78 CALM      30.05R
NEW ORLEANS LA CLOUDY    81  75  82 SE3       29.94
OKLAHOMA CITY  FAIR      77  64  64 SE13      29.93S
ALBUQUERQUE NM MOCLDY    70  33  25 SE9       29.89R
SALT LAKE CITY FAIR      47  39  74 N7        29.96F
LOS ANGELES CA FAIR      63  57  81 W14       29.82R
BOISE ID       FAIR      45  40  82 CALM      30.00R
SEATTLE WA     MOCLDY    61  47  59 S3        30.04S
$$

*** WEATHER ACROSS MANITOBA...SASKATCHEWAN AND ONTARIO ***
                ***ONTARIO***

CITY           SKY/WX    TMP DP  RH WIND       PRES   REMARKS
GERALDTON      FOG       61  61 100 E8        29.90F VSB 3/8
THUNDER BAY    MOCLDY    61  61 100 E10       29.84F
SIOUX LOOKOUT  LGT RAIN  66  66 100 SE7       29.74F
TORONTO        CLEAR     70  50  49 W5        30.09F
BIG TROUT LK   MOCLDY    52  45  76 N5        29.98R
PICKLE LAKE    NOT AVBL
DRYDEN         TSTM      66  64  94 SE13G18   29.72  VSB 5/8
KENORA         LGT RAIN  59  57  94 NE12G20   29.70F
$$
                *** MANITOBA***

CITY           SKY/WX    TMP DP  RH WIND       PRES   REMARKS
BRANDON        CLOUDY    46  45  93 N13       29.97F
DAUPHIN        CLOUDY    46  45  93 NW6       30.04S
ISLAND LAKE    CLOUDY    48  43  81 E3        30.02
PILOT MOUND      N/A     48  46  93 N14         N/A
THE PAS        LGT RAIN  46  43  87 NE3       30.06S
THOMPSON       DRIZZLE   43  39  87 NE10      30.08S
WINNIPEG       LGT RAIN  50  48  93 N17G28    29.85F
LYNN LAKE      CLOUDY    39  39 100 E6        30.13F FOG
CHURCHILL      MOCLDY    41  34  75 N21G26    30.14F
GILLAM         CLOUDY    43  39  87 NE20      30.10R
$$
                ***SASKATCHEWAN***

CITY           SKY/WX    TMP DP  RH WIND       PRES   REMARKS
ESTEVAN        CLOUDY    45  45 100 NW8       30.04F
KINDERSLEY     CLOUDY    43  39  87 CALM      30.08R
LLOYDMINSTER   CLOUDY    41  39  93 SW2       30.08F
PRINCE ALBERT  CLOUDY    43  39  87 CALM      30.09F
REGINA         PTCLDY    39  37  93 NW5       30.06F
YORKTON        CLOUDY    45  43  93 NW7       30.05F



USA.gov is the U.S. government's official web portal to all federal, state and local government web resources and services.